Location: Ar Ranvel
(48.3000°N, 4.8833°W)
Time: 20:12:05
(UTC+00:00)

ISS - Pass Details

Date: 01 October 2021
Orbit: 417 x 423 km, 51.6° (Epoch: 20 October)

Event Time Altitude Azimuth Distance (km) Brightness Sun altitude
Rises 19:51:37 0° 291° (WNW) 2,367 1.7 -19.5°
Reaches altitude 10° 19:53:45 10° 285° (WNW) 1,501 0.3 -19.8°
Maximum altitude 19:57:00 46° 211° (SSW) 577 -3.1 -20.3°
Enters shadow 19:57:08 45° 203° (SSW) 580 -3.1 -20.3°
